Temperature
5 5 5 5 5 4 4 4 3 4 4 6 8 8 8 8 7 5 4 4 3 3 4 4 5 5 5 6 6 6 7 7 8 8 8 7 7 7 7 7 7 7 7 6
4 5 5 4 5 5 5 5 5 5 6 8 8 8 8 7 5 4 3 2 2 2 3 3 4 4 4 5 5 5 6 6 6 6 6 6 6 6 6 5 5 5 4 3
4 6 5 5 5 5 5 5 5 6 7 7 7 7 7 6 4 3 2 1 1 1 1 2 2 3 3 3 3 4 4 4 4 4 4 4 4 4 3 3 2 2 1 1
5 5 5 6 7 6 6 6 6 7 7 8 8 8 7 6 4 3 1 1 1 1 1 1 1 1 1 2 2 2 2 2 2 2 2 2 2 2 1 1 0 0 0 0
5 5 5 7 7 6 6 7 7 7 7 8 8 7 6 5 4 2 1 1 0 0 0 0 0 0 1 1 1 1 1 1 1 1 1 1 0 0 0 -0 -0 -0 -0 0
6 6 6 8 8 8 8 8 9 8 7 7 6 6 6 5 4 2 1 1 0 -0 -0 -0 -0 -0 -0 0 0 0 -0 -0 -0 -0 -0 -0 -0 -0 -0 -0 -0 -0 -0 -0
6 6 6 7 8 8 8 9 9 9 8 7 6 6 6 5 4 3 2 1 1 0 0 0 -0 -0 -0 -0 -0 -1 -0 -0 -0 -0 -0 -0 -0 -0 -0 -0 -0 -0 -0 -1
6 6 6 8 7 7 8 9 9 8 8 7 6 6 6 5 4 3 3 2 2 1 1 1 0 0 0 -0 -0 -0 -0 -0 -0 -0 -0 -0 -0 -0 -0 -0 -1 -1 -1 -2
6 7 8 8 8 10 9 9 9 8 8 7 6 6 5 5 4 4 3 3 3 2 2 2 1 1 1 1 0 0 0 0 0 0 -0 -0 -1 -1 -1 -1 -1 -2 -2 -2
5 5 7 8 9 9 9 9 9 8 8 7 6 6 5 5 5 4 4 4 3 3 3 2 2 1 1 1 1 1 1 0 -0 -0 -0 -1 -1 -1 -2 -2 -2 -2 -3 -3
5 5 7 9 9 9 9 9 9 8 8 7 6 6 5 5 5 4 4 4 3 3 3 2 2 2 1 1 1 1 0 0 -0 -1 -1 -1 -1 -2 -2 -2 -3 -3 -4 -4
5 6 6 7 9 8 8 9 8 8 8 7 6 6 5 5 4 4 4 4 3 3 3 2 2 2 1 1 0 0 0 -0 -1 -1 -1 -2 -2 -2 -3 -3 -3 -4 -4 -5
6 6 6 7 8 8 8 8 8 8 7 7 6 5 5 5 4 4 3 3 3 3 3 2 2 1 1 0 -0 -0 -1 -1 -1 -2 -2 -2 -2 -3 -3 -4 -4 -5 -5 -6
5 5 6 7 6 7 7 7 7 7 7 6 6 5 4 4 4 3 3 3 3 3 2 2 2 1 1 0 -0 -1 -1 -1 -1 -2 -2 -2 -3 -3 -4 -4 -5 -5 -6 -6
5 4 4 5 5 6 6 6 6 6 6 5 5 4 4 4 4 3 3 3 2 2 2 2 1 1 1 0 -0 -1 -1 -1 -2 -2 -2 -3 -3 -4 -4 -4 -5 -6 -6 -7
4 4 4 4 4 4 5 5 5 5 5 5 4 4 3 3 3 2 2 2 2 2 2 2 1 1 0 -0 -1 -1 -1 -2 -2 -2 -3 -3 -4 -4 -5 -5 -6 -7 -7 -8
2 2 2 2 2 3 3 4 4 4 4 4 4 3 3 3 2 2 2 2 2 2 1 1 1 0 -0 -0 -1 -1 -2 -2 -2 -3 -3 -4 -4 -5 -6 -6 -7 -8 -8 -9
0 0 0 0 1 2 3 3 4 4 4 4 3 3 3 3 3 3 2 2 2 1 1 1 0 -0 -0 -1 -1 -2 -2 -2 -3 -3 -4 -4 -5 -6 -7 -7 -8 -8 -9 -9
0 0 0 0 1 1 2 3 4 4 4 4 3 3 3 3 2 2 2 2 2 2 1 0 -0 -1 -1 -1 -2 -2 -2 -3 -3 -4 -5 -5 -6 -7 -7 -8 -8 -9 -9 -9
0 0 0 1 1 2 2 3 4 4 4 3 3 2 2 2 2 2 2 2 2 2 1 0 -0 -1 -1 -2 -2 -2 -3 -3 -4 -4 -5 -6 -6 -7 -8 -8 -9 -9 -9 -10
1 1 1 1 1 2 2 3 3 3 3 3 2 2 2 2 2 2 2 2 2 1 0 -0 -1 -1 -2 -2 -2 -3 -3 -4 -4 -5 -5 -6 -7 -7 -8 -9 -9 -9 -10 -10
1 1 1 1 1 2 2 2 2 2 2 2 1 1 1 1 1 2 2 2 1 1 0 -1 -1 -2 -2 -2 -3 -3 -4 -4 -5 -5 -6 -6 -7 -8 -8 -9 -9 -9 -9 -10
1 0 1 1 1 1 1 1 1 1 1 1 1 1 1 1 1 2 2 1 1 0 -0 -1 -1 -2 -2 -3 -3 -4 -4 -4 -5 -6 -6 -7 -7 -8 -8 -9 -9 -9 -9 -9
0 0 -0 -0 -0 0 0 0 0 -0 -0 -0 0 0 0 0 1 1 1 1 0 -0 -1 -1 -2 -2 -3 -3 -4 -4 -4 -5 -5 -6 -6 -7 -7 -8 -8 -8 -9 -9 -9 -9
-0 -1 -1 -0 -0 -1 -1 -1 -1 -1 -1 -1 -1 -1 -0 -0 0 0 0 0 -0 -1 -1 -2 -2 -3 -3 -3 -4 -4 -5 -5 -5 -6 -7 -7 -8 -8 -8 -8 -8 -9 -9 -8
-1 -1 -1 -2 -2 -2 -2 -2 -2 -2 -2 -1 -1 -1 -1 -1 -0 -0 -1 -1 -1 -1 -2 -2 -2 -3 -3 -4 -4 -4 -5 -5 -6 -6 -7 -7 -7 -8 -8 -8 -8 -8 -8 -8
-2 -2 -2 -2 -2 -2 -2 -2 -2 -2 -2 -2 -2 -2 -2 -2 -2 -1 -2 -2 -2 -2 -2 -2 -3 -3 -3 -4 -4 -5 -5 -5 -6 -6 -7 -7 -7 -8 -8 -8 -8 -8 -8 -8
Wind_Speed
2 2 4 6 7 9 9 9 8 8 8 15 15 15 13 9 8 9 10 11 11 12 12 12 10 9 9 9 8 7 6 6 5 6 8 9 11 11 12 13 14 14 15 15
2 1 4 5 9 11 10 9 11 11 14 16 12 8 8 7 7 9 10 10 11 11 11 11 10 9 9 9 9 8 8 8 9 10 11 12 13 14 14 14 14 15 15 15
2 2 2 7 10 13 8 8 9 12 12 11 11 10 7 6 5 7 8 9 9 9 9 9 9 8 8 8 8 9 10 10 11 12 13 13 14 15 15 14 14 14 14 15
1 2 5 6 3 8 8 8 11 10 12 11 10 8 3 0 3 5 6 7 7 7 7 7 8 8 8 8 9 9 10 10 11 12 13 13 14 14 13 12 12 13 13 13
1 3 6 7 3 7 7 6 8 12 14 11 6 5 2 2 1 2 3 4 4 5 5 6 7 7 7 8 9 9 10 10 10 11 12 12 12 12 11 12 11 11 11 11
2 3 4 4 1 4 4 3 4 6 8 7 3 3 3 3 1 1 2 3 4 4 5 6 7 6 8 8 9 9 9 9 9 10 11 11 11 11 10 10 10 10 10 9
5 4 7 6 2 4 3 4 3 4 6 5 4 5 2 4 2 2 2 3 4 5 5 6 6 6 8 8 8 8 8 9 10 10 10 10 10 10 10 10 10 10 10 8
6 6 7 3 6 6 5 3 3 4 4 5 5 3 4 4 4 3 2 3 4 4 5 6 6 6 8 7 6 7 8 9 10 9 9 9 10 9 9 9 9 8 8 7
7 8 4 3 6 6 3 5 5 4 4 3 4 5 5 5 5 4 4 3 4 5 5 6 5 6 7 5 6 7 9 10 9 10 9 8 8 8 7 7 6 5 5 5
5 8 7 8 8 7 6 6 5 5 4 4 5 6 7 6 6 5 5 4 4 5 6 5 5 6 5 5 6 8 9 8 8 8 8 8 6 6 6 5 5 5 4 4
6 7 7 5 3 4 4 5 5 5 4 6 6 7 8 7 7 6 5 5 5 5 6 6 5 6 5 5 7 9 8 7 7 7 7 7 6 5 5 3 4 4 3 3
6 5 3 6 6 5 5 6 6 5 4 4 6 7 8 8 7 7 7 6 6 6 6 6 6 6 5 5 7 8 7 6 5 5 5 5 5 5 8 6 8 7 4 2
4 3 5 8 7 4 5 6 5 5 5 4 5 7 8 7 7 8 8 7 7 7 7 6 6 6 5 5 6 7 7 6 5 5 4 4 4 4 3 5 8 8 7 6
2 4 5 5 6 7 5 3 1 1 2 4 5 6 7 7 8 8 8 8 7 7 7 7 6 5 4 6 7 7 7 6 5 4 4 4 3 3 2 2 2 3 5 7
2 4 6 9 9 6 3 1 2 2 2 3 4 6 8 9 9 8 8 8 8 8 7 7 7 5 5 6 7 7 6 5 4 4 4 4 3 3 3 3 2 2 3 4
8 7 7 7 7 6 4 4 5 5 4 5 6 7 7 8 8 8 8 9 9 9 8 8 7 6 6 7 7 6 5 7 6 4 4 3 3 3 2 2 2 2 3 3
6 7 6 7 9 9 7 7 7 7 6 7 7 7 8 8 8 8 7 7 6 7 7 7 7 6 6 7 7 5 5 5 6 4 3 3 2 1 1 1 1 2 3 5
6 8 9 10 11 11 10 8 7 7 7 7 8 9 10 10 10 9 8 7 7 6 6 6 7 7 7 7 6 5 5 4 4 3 2 2 1 1 0 1 2 3 3 4
6 7 8 9 9 9 9 8 7 6 6 8 10 10 9 9 9 9 9 9 9 8 7 7 11 8 7 7 7 5 5 5 4 3 2 1 1 0 1 2 3 4 4 4
6 7 8 9 9 7 7 6 4 3 5 8 9 9 8 8 9 10 9 8 7 5 8 9 9 7 7 7 8 5 5 5 4 3 2 1 1 2 2 3 3 4 4 4
8 8 9 9 9 8 6 4 1 2 5 7 9 9 8 8 9 9 9 7 5 7 10 12 8 6 6 7 7 5 5 4 4 3 3 2 2 3 3 4 4 4 5 5
7 8 9 9 9 9 7 4 2 2 3 5 6 7 8 9 9 7 6 5 7 12 9 7 6 9 10 9 5 5 5 4 4 3 3 3 3 3 4 4 4 5 5 5
6 7 8 9 9 7 6 5 3 1 2 4 6 8 8 8 8 7 7 5 7 13 9 7 10 14 14 7 5 5 5 5 4 4 4 4 4 4 4 5 5 5 5 6
6 7 7 7 6 6 6 6 5 2 1 2 4 5 7 6 5 5 3 10 14 14 8 11 16 15 13 6 5 5 5 5 4 4 4 4 4 4 4 5 5 5 6 7
5 6 6 7 6 5 5 5 4 3 1 1 1 3 4 4 5 5 5 9 14 14 8 12 17 15 9 6 6 5 5 5 5 4 4 4 4 4 5 5 5 6 6 7
5 5 5 5 4 4 4 4 3 3 2 1 1 2 2 3 4 6 6 8 10 13 9 7 9 10 7 6 6 6 5 4 4 4 4 4 5 5 5 5 7 6 6 7
5 4 4 4 4 4 4 4 4 3 3 3 3 2 3 4 4 5 6 7 8 8 7 7 7 7 7 6 6 5 4 4 4 4 4 4 4 5 5 6 6 6 6 7
Wind_Direction
217 227 177 200 194 188 196 195 206 239 249 276 289 295 300 307 326 336 339 343 345 343 337 338 342 348 352 352 355 4 22 35 47 80 96 103 105 107 109 111 113 114 114 112
330 257 216 235 223 206 213 219 236 261 278 273 278 287 297 317 334 335 337 342 344 344 345 349 352 356 2 9 12 29 47 54 63 78 86 92 97 100 102 104 107 109 111 111
298 281 313 261 226 201 200 206 204 235 248 272 290 299 308 320 333 332 335 339 343 344 348 352 359 6 15 22 32 47 56 62 69 79 85 89 95 97 99 101 103 104 105 107
276 353 258 245 218 181 199 228 214 234 257 273 281 298 295 97 332 331 335 337 342 346 353 1 11 21 31 39 48 58 65 70 76 85 89 90 93 96 98 101 102 103 104 105
217 277 280 291 232 169 182 257 225 232 257 273 300 318 272 146 53 340 335 339 348 359 9 17 23 28 43 50 53 60 65 70 77 86 91 92 94 96 99 100 99 99 101 102
204 253 258 253 280 167 139 275 254 220 256 277 319 308 275 147 111 48 12 9 17 20 28 33 30 37 53 54 56 58 62 69 74 82 89 92 94 94 94 96 96 93 89 88
221 244 265 252 205 141 169 229 273 247 259 262 226 223 163 137 126 103 61 52 48 42 41 38 40 53 60 57 55 58 67 73 75 80 85 89 89 88 91 92 91 88 85 77
194 217 253 225 144 181 223 252 268 264 257 247 225 169 151 155 142 127 102 79 69 61 52 47 55 69 70 61 58 66 72 76 75 75 80 84 86 85 85 91 91 89 88 79
201 219 243 199 212 240 229 254 261 246 249 230 210 192 177 170 157 143 129 106 91 85 72 60 61 75 82 71 75 80 78 75 75 74 71 74 82 85 80 80 89 88 88 87
243 261 260 261 262 268 244 235 249 246 245 210 207 191 178 170 162 152 141 130 121 109 96 80 71 73 79 86 89 90 85 78 76 77 73 65 65 75 84 88 93 94 94 92
246 273 296 290 267 275 268 250 258 258 230 214 200 189 179 174 168 158 148 140 132 126 116 108 97 86 84 91 99 94 86 82 78 77 81 74 69 74 87 89 122 119 120 124
227 239 241 277 292 299 278 267 257 246 235 208 196 186 173 170 165 157 151 145 140 133 127 121 113 102 96 101 108 109 100 89 84 84 80 80 80 70 77 87 86 92 108 118
261 300 257 267 286 290 280 272 255 230 222 209 192 176 164 161 160 154 153 154 154 148 140 133 124 115 112 113 109 107 111 108 98 96 96 95 93 94 77 58 65 62 50 38
15 355 310 312 311 309 291 283 239 216 207 191 172 159 154 151 154 159 163 160 151 144 141 138 132 126 127 123 114 110 109 114 112 105 104 101 98 96 96 83 39 10 12 14
20 340 282 287 294 296 293 260 238 233 197 175 167 164 162 162 166 166 158 150 144 143 145 145 141 141 139 129 122 120 116 113 111 109 104 100 97 90 77 67 53 12 350 350
313 304 294 297 303 303 292 267 253 244 215 198 187 181 174 163 156 152 154 156 157 164 163 158 154 153 146 133 125 120 124 132 126 115 103 93 84 79 66 46 18 351 331 317
315 319 325 319 315 308 291 268 253 243 218 203 193 173 156 149 148 155 161 161 156 155 159 158 154 147 142 138 132 128 123 127 122 107 100 99 93 81 51 351 318 308 299 302
274 281 287 289 292 294 291 278 259 239 218 200 171 162 166 170 173 169 159 143 133 134 150 150 145 140 136 135 131 129 125 120 118 121 120 130 128 107 334 303 299 298 297 304
310 305 304 299 293 287 283 278 265 237 200 173 170 178 181 178 168 160 155 156 162 168 172 161 157 145 140 147 137 126 128 128 123 121 120 159 122 17 292 287 287 287 289 292
333 329 324 320 317 307 295 290 270 209 178 170 169 171 173 170 162 161 166 178 185 173 158 159 151 145 144 151 142 129 136 141 147 151 158 177 216 260 273 278 282 283 283 285
345 341 341 339 336 335 330 322 276 173 168 170 175 180 176 167 164 165 172 186 182 155 157 161 152 148 148 154 146 137 145 151 160 174 190 210 238 258 268 275 282 287 288 290
348 347 347 347 348 348 348 354 26 130 156 172 173 165 163 168 172 179 190 184 165 168 161 156 153 162 165 155 139 147 154 161 170 181 199 218 238 256 266 273 279 284 285 285
350 349 349 349 346 341 352 8 15 39 186 187 181 179 180 181 180 183 194 178 162 172 164 164 171 172 168 152 148 157 164 173 185 197 210 224 239 252 264 274 276 278 281 284
350 349 345 340 343 354 358 354 352 347 293 214 195 187 179 178 189 194 163 171 177 174 169 176 177 176 166 148 156 163 174 185 195 205 217 231 244 254 261 269 275 278 278 282
341 337 340 349 355 349 335 333 342 350 351 313 215 195 190 186 184 180 165 172 179 172 167 180 181 176 158 154 165 173 182 195 202 206 217 232 247 257 263 267 270 276 280 279
338 332 326 323 323 322 324 327 323 316 310 291 266 214 188 167 159 162 167 173 178 174 169 170 170 166 155 163 170 179 188 207 226 222 221 236 250 258 265 270 275 274 275 276
330 327 325 328 330 332 326 316 305 295 282 264 255 217 188 173 168 170 170 171 171 167 163 160 154 151 157 164 172 181 190 200 210 221 232 241 250 257 265 270 273 275 276 277
Height
1485 1484 1486 1487 1488 1491 1493 1495 1497 1489 1485 1471 1465 1463 1459 1456 1453 1450 1447 1444 1440 1436 1432 1428 1425 1422 1419 1416 1414 1412 1410 1409 1409 1409 1409 1410 1411 1413 1415 1418 1421 1424 1427 1431
1486 1483 1485 1485 1484 1485 1487 1487 1486 1483 1477 1463 1460 1459 1456 1454 1451 1448 1446 1442 1439 1435 1432 1428 1425 1422 1419 1416 1413 1411 1409 1408 1408 1407 1408 1408 1409 1411 1413 1416 1419 1423 1426 1431
1486 1481 1481 1482 1474 1476 1478 1476 1476 1477 1469 1460 1458 1456 1454 1452 1449 1447 1445 1442 1438 1435 1432 1429 1425 1423 1420 1417 1414 1412 1410 1409 1408 1408 1408 1408 1409 1411 1414 1416 1420 1424 1428 1433
1483 1482 1486 1471 1462 1465 1468 1467 1467 1465 1461 1457 1456 1454 1451 1450 1448 1446 1444 1441 1438 1435 1432 1429 1427 1424 1421 1419 1416 1414 1412 1411 1410 1410 1410 1411 1412 1414 1417 1420 1424 1428 1432 1436
1480 1480 1476 1465 1460 1462 1465 1463 1459 1460 1457 1454 1453 1451 1449 1448 1447 1445 1443 1441 1438 1435 1433 1430 1428 1425 1423 1421 1419 1417 1415 1415 1415 1415 1415 1416 1417 1419 1422 1425 1428 1433 1436 1440
1478 1478 1473 1462 1457 1456 1460 1460 1455 1454 1453 1452 1452 1453 1450 1447 1445 1444 1442 1440 1438 1436 1433 1431 1429 1428 1426 1424 1422 1421 1420 1420 1420 1420 1421 1422 1423 1425 1428 1431 1434 1437 1440 1442
1474 1473 1469 1457 1455 1457 1462 1459 1453 1451 1450 1449 1449 1449 1447 1446 1445 1443 1442 1440 1438 1437 1435 1433 1432 1431 1429 1428 1427 1426 1426 1426 1426 1427 1427 1429 1430 1432 1435 1437 1439 1441 1443 1444
1469 1470 1467 1452 1454 1456 1454 1450 1449 1448 1446 1445 1445 1444 1444 1444 1444 1443 1442 1441 1440 1438 1437 1436 1435 1434 1434 1432 1432 1432 1432 1432 1432 1433 1434 1436 1437 1439 1440 1442 1443 1444 1446 1446
1462 1459 1451 1450 1450 1449 1448 1448 1446 1445 1443 1442 1442 1441 1442 1442 1443 1443 1442 1442 1441 1441 1440 1439 1439 1439 1438 1438 1438 1438 1438 1438 1439 1439 1440 1441 1442 1443 1444 1445 1446 1447 1448 1448
1457 1451 1448 1447 1447 1446 1445 1444 1443 1442 1440 1439 1439 1439 1439 1440 1441 1442 1442 1442 1442 1443 1442 1442 1442 1443 1442 1442 1443 1443 1443 1443 1444 1444 1445 1445 1446 1447 1447 1448 1448 1449 1449 1449
1452 1448 1445 1443 1444 1443 1443 1441 1440 1439 1437 1436 1436 1436 1437 1438 1439 1440 1441 1442 1443 1444 1444 1444 1445 1445 1445 1446 1447 1447 1447 1447 1448 1448 1448 1449 1449 1449 1449 1449 1449 1449 1448 1448
1448 1444 1445 1442 1441 1441 1439 1438 1437 1435 1434 1433 1433 1433 1434 1435 1437 1439 1440 1441 1443 1444 1445 1446 1447 1447 1448 1449 1450 1450 1450 1450 1451 1451 1450 1450 1450 1450 1450 1450 1449 1448 1447 1446
1443 1441 1441 1439 1438 1437 1436 1434 1433 1432 1431 1430 1430 1430 1431 1432 1434 1436 1438 1440 1442 1443 1445 1446 1447 1449 1450 1450 1451 1452 1452 1452 1452 1452 1452 1451 1451 1451 1450 1449 1448 1447 1446 1444
1439 1438 1437 1436 1435 1433 1432 1430 1429 1428 1427 1427 1427 1427 1428 1430 1432 1434 1436 1438 1441 1442 1444 1446 1448 1449 1450 1451 1452 1453 1453 1453 1453 1453 1452 1452 1451 1451 1450 1448 1448 1446 1445 1443
1436 1435 1434 1432 1430 1429 1428 1427 1426 1425 1424 1424 1424 1424 1425 1427 1429 1432 1434 1437 1439 1441 1443 1445 1447 1449 1450 1451 1452 1453 1453 1453 1453 1453 1452 1452 1451 1450 1449 1447 1446 1444 1443 1441
1431 1431 1429 1428 1426 1425 1424 1423 1422 1422 1421 1421 1421 1422 1423 1425 1427 1429 1432 1435 1437 1439 1442 1444 1447 1448 1450 1451 1452 1452 1453 1453 1453 1453 1452 1451 1450 1449 1447 1445 1444 1442 1440 1438
1427 1425 1424 1422 1421 1420 1420 1419 1419 1418 1418 1418 1419 1420 1421 1422 1424 1426 1429 1432 1435 1438 1441 1444 1446 1448 1449 1450 1451 1452 1452 1452 1452 1452 1451 1449 1448 1447 1445 1443 1441 1439 1437 1436
1425 1423 1421 1420 1417 1416 1415 1415 1414 1414 1414 1415 1415 1416 1418 1419 1421 1424 1427 1430 1433 1436 1439 1442 1444 1446 1448 1449 1450 1451 1451 1451 1451 1450 1449 1447 1446 1444 1442 1441 1439 1437 1435 1433
1421 1420 1418 1416 1414 1412 1410 1410 1410 1410 1410 1411 1412 1413 1415 1417 1419 1422 1425 1428 1431 1434 1437 1440 1443 1445 1446 1448 1449 1449 1449 1449 1449 1448 1446 1445 1443 1442 1440 1438 1436 1434 1432 1430
1419 1417 1415 1412 1410 1409 1407 1406 1406 1406 1407 1408 1409 1410 1412 1414 1416 1419 1422 1425 1429 1433 1436 1438 1441 1443 1445 1446 1447 1447 1447 1447 1446 1445 1444 1442 1441 1439 1437 1435 1433 1431 1429 1427
1417 1415 1412 1410 1408 1406 1405 1404 1404 1403 1404 1405 1406 1407 1409 1411 1414 1417 1420 1423 1427 1431 1434 1436 1439 1441 1442 1444 1445 1445 1445 1445 1444 1443 1441 1440 1438 1436 1434 1432 1430 1428 1426 1423
1416 1413 1411 1409 1407 1405 1404 1403 1402 1402 1402 1403 1404 1405 1407 1409 1411 1414 1418 1422 1425 1428 1431 1434 1436 1438 1440 1441 1442 1442 1442 1442 1441 1440 1439 1437 1435 1433 1431 1429 1427 1425 1423 1420
1415 1413 1411 1408 1406 1405 1403 1402 1401 1401 1401 1401 1402 1403 1404 1406 1409 1412 1415 1419 1422 1425 1428 1431 1434 1436 1437 1438 1439 1440 1440 1439 1438 1437 1436 1434 1432 1430 1428 1426 1424 1422 1420 1417
1414 1412 1410 1408 1406 1404 1403 1401 1401 1400 1400 1400 1400 1401 1402 1404 1406 1410 1413 1416 1419 1422 1425 1428 1430 1432 1434 1435 1436 1437 1437 1436 1435 1434 1433 1431 1429 1428 1426 1424 1421 1419 1417 1415
1413 1411 1409 1407 1405 1403 1402 1400 1399 1399 1398 1398 1398 1399 1400 1402 1404 1407 1410 1413 1416 1419 1422 1425 1427 1429 1431 1432 1433 1434 1434 1433 1432 1431 1430 1428 1427 1425 1423 1421 1419 1417 1415 1412
1411 1410 1408 1406 1404 1402 1400 1399 1398 1397 1396 1396 1396 1396 1397 1398 1400 1403 1406 1409 1412 1415 1418 1421 1423 1425 1427 1429 1430 1430 1430 1430 1429 1428 1427 1425 1424 1422 1420 1418 1416 1414 1412 1410
1409 1408 1406 1404 1403 1401 1399 1397 1396 1395 1394 1394 1393 1394 1394 1395 1397 1399 1401 1404 1407 1410 1414 1417 1419 1422 1424 1425 1426 1427 1427 1426 1425 1424 1423 1422 1420 1419 1417 1416 1414 1411 1409 1407